Regional Weather Roundup
Issued by NWS

Home | Current Version | Previous Version | Text Only | Print | Product List | Glossary On
Versions: 1 2 3 4 5 6 7 8 9 10 11 12 13 14 15 16 17 18 19 20 21 22 23 24 25 26 27 28 29 30 31 32 33 34 35 36 37 38 39 40 41 42 43 44 45 46 47 48 49 50
000
ASUS45 KBOU 051307
RWRCO

WEATHER ROUNDUP FOR COLORADO
NATIONAL WEATHER SERVICE DENVER/BOULDER CO
700 AM MDT WED AUG 05 2015

NOTE: "FAIR" INDICATES FEW OR NO CLOUDS BELOW 12000 FEET WITH NO
SIGNIFICANT WEATHER AND/OR OBSTRUCTIONS TO VISIBILITY.

COZ001>005-013-030-031-051400-
...NORTHWEST COLORADO...

CITY           SKY/WX    TMP DP  RH WIND       PRES   REMARKS
CRAIG          NOT AVBL
HAYDEN         CLEAR     54  39  58 E12       30.26R
MEEKER         PTCLDY    52  40  63 CALM      30.25R
MOUNT WERNER   NOT AVBL
STEAMBOAT SPGS   N/A    N/A N/A N/A MISG        N/A
WALDEN         CLEAR     41  34  75 SE5       30.38R
$$

COZ006>008-011-051400-
...WEST CENTRAL VALLEYS...

CITY           SKY/WX    TMP DP  RH WIND       PRES   REMARKS
GRAND JUNCTION CLEAR     66  43  43 E13       30.13R
MONTROSE       CLEAR     58  43  57 S7        30.24R
EAGLE          CLEAR     48  39  71 CALM      30.36R
RIFLE          CLEAR     54  47  77 CALM      30.22R
DELTA          CLEAR     62  45  53 E8        30.20R
NUCLA          CLEAR     59  43  55 SE9       30.27R
$$

COZ017>023-064>068-051400-
...SOUTHWEST COLORADO...

CITY           SKY/WX    TMP DP  RH WIND       PRES   REMARKS
DURANGO        CLEAR     49  42  77 NE3       30.30R
CORTEZ         CLEAR     50  45  83 NE3       30.24R
PAGOSA SPRINGS CLEAR     49  38  67 CALM      30.39R
TELLURIDE      PTCLDY    50  38  62 SE7       30.50S
WOLF CREEK PAS NOT AVBL
$$

COZ009-010-012-014-032>034-037-058>063-051400-
...CENTRAL COLORADO...

CITY           SKY/WX    TMP DP  RH WIND       PRES   REMARKS
ASPEN          CLEAR     50  38  63 SW8       30.38R
BUENA VISTA    CLEAR     49  39  69 CALM      30.42S
COPPER MTN     CLEAR     54  32  43 SW6       30.68R
BERTHOUD PASS  FAIR      43  32  65 NW23G33   30.68S
COTTONWOOD PAS CLEAR     57  32  38 W7        30.52S
GUNNISON       CLEAR     45  39  81 MISG      30.46R
KREMMLING      CLEAR     41  34  75 CALM      30.40S
LEADVILLE      CLEAR     43  36  76 CALM      30.53R
MONARCH PASS   CLEAR     46  32  57 W17       30.77S
SALIDA         CLEAR     51  40  67 SW3       30.47R
SUNLIGHT       CLEAR     52  36  54 CALM      30.60S
WILKERSON PASS PTCLDY    48  32  53 W5        30.65
$$

COZ069>075-051400-
...SAN LUIS VALLEY/SANGRE DE CRISTO MOUNTAINS...

CITY           SKY/WX    TMP DP  RH WIND       PRES   REMARKS
ALAMOSA        PTCLDY    47  44  90 E5        30.37R
LA VETA PASS   CLEAR     54  36  50 MISG      30.56R
SAGUACHE       CLEAR     50  37  62 NW8       30.41R
$$

COZ035-036-038>040-051400-
...NORTHERN COLORADO FRONT RANGE...

CITY           SKY/WX    TMP DP  RH WIND       PRES   REMARKS
DENVER INTL AP PTCLDY    64  48  56 SW14      30.16F
DMNS CITY PARK   N/A     64  47  52 NE1G10    30.17S
AURORA         PTCLDY    62  49  64 SW9       30.19R
FRONT RANGE AP CLEAR     57  48  72 S8        30.18
ERIE MUNI ARPT CLEAR     56  47  72 CALM      30.15S
BOULDER MUN AP CLEAR     61  46  59 CALM      30.16S
CENTENNIAL     PTCLDY    65  45  48 SW10      30.20R
BROOMFIELD     PTCLDY    66  39  37 CALM      30.19R
FORT COLLINS   CLEAR     57  52  82 S5        30.15S
LONGMONT       CLEAR     58  49  72 CALM      30.17S HAZE
$$

COZ041-046-047-076>085-087-088-051400-
...PIKES PEAK/PALMER DIVIDE AND SOUTHERN FOOTHILLS...

CITY           SKY/WX    TMP DP  RH WIND       PRES   REMARKS
COLO. SPRINGS  PTCLDY    60  51  72 N7        30.24R
A. F. ACADEMY  CLEAR     56  48  74 N10       30.25S
ELLICOTT       CLEAR    N/A N/A N/A CALM      30.22R
FALCON         CLEAR     60  48  65 NW6       30.29R
FORT CARSON    CLEAR     60  48  63 NW14      30.20R
LIMON          SUNNY     56  53  90 N7        30.17S
MONUMENT HILL  CLEAR     55  46  71 SW7       30.29S
TRINIDAD       CLEAR     61  49  64 W9        30.22R
$$

COZ042>045-048>051-090-091-051400-
...NORTHEAST COLORADO...

CITY           SKY/WX    TMP DP  RH WIND       PRES   REMARKS
GREELEY ARPT   SUNNY     57  54  88 CALM      30.14S
AKRON          SUNNY     65  54  67 SW12      30.11S
BURLINGTON     SUNNY     61  58  90 W6        30.08F
WRAY           SUNNY    N/A N/A N/A E3        30.08R
STERLING       SUNNY     55  54  94 CALM      30.07S
HOLYOKE        MOSUNNY   59  57  94 CALM      30.08S FOG
FORT MORGAN    SUNNY     56  54  92 SW6       30.12R
$$

COZ086-089-092>099-051400-
...SOUTHEAST COLORADO...

CITY           SKY/WX    TMP DP  RH WIND       PRES   REMARKS
PUEBLO         CLEAR     62  56  80 W3        30.14R
LA JUNTA       SUNNY     65  59  81 W8        30.10S
LAMAR          SUNNY     65  64  97 W5        30.04S
SPRINGFIELD      N/A     67  62  84 NW16      30.07R
$$


USA.gov is the U.S. government's official web portal to all federal, state and local government web resources and services.